Flag for Germany Weather past 2 weeks in Celle, Lower Saxony, Germany

Now
59 °F

Drizzle. Fog.


Feels Like: 60 °F
Forecast: 49 / 69 °F
Wind: 3 mph from Northwest

Location: Celle Airport

Current Time: Sep 2, 2014 at 7:04:09 AM

Latest Report: Sep 2, 2014 at 6:20 AM


Visibility: 1 mi

Pressure: 30.09 "Hg

Humidity: 100%

Dew point: 59 °F

Location of CelleLocation

Historic Weather in Celle — Graph

°F

Celle temperature yesterday

Maximum temperature yesterday: 66 °F (at 3:20 PM)
Minimum temperature yesterday: 50 °F (at 3:20 AM)
Average temperature yesterday: 58 °F

Past Weeks' High & Low Weather Summary

 TemperatureHumidityPressure
High75 °F (Aug 28, 5:20 PM)100% (Aug 24, 7:20 AM)30.09 "Hg (Aug 24, 7:20 AM)
Low43 °F (Aug 27, 4:20 AM)33% (Aug 27, 6:20 PM)29.59 "Hg (Aug 18, 7:20 AM)
Average57 °F79%29.92 "Hg
* Reported Aug 18 5:20 AM — Sep 2 5:45 AM, Celle, Weather by CustomWeather, © 2014

Note: Actual official high and low records may vary slightly from our data, if they occured in-between our weather recording intervals... More about our weather records

Advertising

Celle weather history for previous 24 hours

 ConditionsComfort  
Time TempWeatherWind HumidityBarometerVisibility
5:45 AM
Sep 2
59 °FDrizzle. Fog.3 mph94%30.09 "Hg1 mi
5:20 AM59 °FDrizzle. Fog.3 mph94%30.09 "Hg1 mi
4:20 AM59 °FFog.3 mph94%30.09 "Hg2 mi
3:50 AM59 °FFog.3 mph94%30.09 "Hg2 mi
3:20 AM59 °FFog.3 mph94%30.09 "Hg3 mi
2:50 AM59 °FFog.3 mph94%30.09 "Hg3 mi
2:20 AM59 °FDrizzle. Fog.3 mph94%30.09 "Hg3 mi
1:20 AM59 °FLow clouds.5 mph94%30.09 "Hg5 mi
12:20 AM59 °FPassing clouds.3 mph94%30.09 "Hg6 mi
11:20 PM
Sep 1
61 °FPassing clouds.3 mph94%30.09 "Hg6 mi
10:51 PM61 °FSprinkles. Passing clouds.5 mph88%30.09 "Hg4 mi
10:20 PM61 °FPartly cloudy.3 mph88%30.09 "HgN/A
9:20 PM61 °FPassing clouds.3 mph94%30.09 "HgN/A
8:20 PM63 °FScattered showers. Broken clouds.5 mph88%30.07 "HgN/A
7:20 PM63 °FPartly sunny.5 mph83%30.07 "HgN/A
6:20 PM66 °FPartly sunny.2 mph73%30.07 "HgN/A
5:20 PM66 °FPartly sunny.3 mph73%30.07 "HgN/A
4:20 PM66 °FScattered clouds.2 mph68%30.07 "HgN/A
3:20 PM66 °FScattered clouds.5 mph68%30.07 "HgN/A
2:20 PM64 °FBroken clouds.3 mph68%30.07 "HgN/A
1:20 PM63 °FBroken clouds.5 mph77%30.07 "HgN/A
12:20 PM61 °FBroken clouds.3 mph83%30.07 "Hg5 mi
11:50 AM59 °FFog.3 mph88%30.07 "Hg3 mi
11:20 AM57 °FDrizzle. Fog.3 mph94%30.07 "Hg2 mi
10:20 AM55 °FFog.5 mph100%30.07 "Hg1 mi
9:20 AM55 °FFog.3 mph94%30.04 "Hg1 mi
9:03 AM55 °FFog.3 mph94%30.04 "Hg1 mi
8:20 AM54 °FFog.3 mph100%30.04 "Hg1 mi
7:48 AM54 °FFog.3 mph94%30.04 "Hg1 mi
7:20 AM54 °FFog.5 mph94%30.04 "Hg1 mi
Weather by CustomWeather, © 2014

See weather overviewHow to use our weather pages